TimeEST,TemperatureF,Dew PointF,Humidity,Sea Level PressureIn,VisibilityMPH,Wind Direction,Wind SpeedMPH,Gust SpeedMPH,PrecipitationIn,Events,Conditions,WindDirDegrees,DateUTC
12:56 AM,36.0,26.1,67,30.13,10.0,NNW,17.3,-,N/A,,Clear,340,2013-03-09 05:56:00
1:56 AM,36.0,25.0,64,30.12,10.0,North,12.7,-,N/A,,Clear,350,2013-03-09 06:56:00
2:56 AM,35.1,24.1,64,30.11,10.0,North,15.0,-,N/A,,Clear,350,2013-03-09 07:56:00
3:56 AM,35.1,23.0,61,30.12,10.0,North,13.8,-,N/A,,Clear,350,2013-03-09 08:56:00
4:56 AM,34.0,23.0,64,30.14,10.0,NNW,13.8,-,N/A,,Clear,340,2013-03-09 09:56:00
5:56 AM,33.1,23.0,66,30.16,10.0,NNW,16.1,24.2,N/A,,Clear,340,2013-03-09 10:56:00
7:56 AM,36.0,24.1,62,30.20,10.0,NNW,15.0,-,N/A,,Clear,340,2013-03-09 12:56:00
8:56 AM,37.9,23.0,55,30.22,10.0,North,11.5,19.6,N/A,,Clear,350,2013-03-09 13:56:00
9:56 AM,41.0,21.0,45,30.22,10.0,North,12.7,-,N/A,,Clear,350,2013-03-09 14:56:00
10:56 AM,43.0,23.0,45,30.23,10.0,NNW,13.8,-,N/A,,Clear,330,2013-03-09 15:56:00
11:56 AM,46.0,23.0,40,30.22,10.0,NNW,13.8,-,N/A,,Clear,330,2013-03-09 16:56:00
12:56 PM,48.9,24.1,38,30.21,10.0,NNW,13.8,-,N/A,,Partly Cloudy,330,2013-03-09 17:56:00
1:56 PM,50.0,23.0,35,30.19,10.0,NNW,11.5,-,N/A,,Scattered Clouds,330,2013-03-09 18:56:00
2:56 PM,52.0,21.9,31,30.20,10.0,NNW,10.4,-,N/A,,Mostly Cloudy,330,2013-03-09 19:56:00
3:56 PM,52.0,21.0,30,30.21,10.0,NNW,9.2,-,N/A,,Scattered Clouds,330,2013-03-09 20:56:00
4:56 PM,52.0,21.0,30,30.22,10.0,North,8.1,-,N/A,,Partly Cloudy,350,2013-03-09 21:56:00
5:56 PM,48.0,23.0,37,30.24,10.0,Calm,Calm,-,N/A,,Partly Cloudy,0,2013-03-09 22:56:00
6:56 PM,39.0,30.9,73,30.27,10.0,SE,5.8,-,N/A,,Partly Cloudy,130,2013-03-09 23:56:00
7:56 PM,37.9,30.9,76,30.28,10.0,SE,3.5,-,N/A,,Partly Cloudy,140,2013-03-10 00:56:00
8:56 PM,34.0,28.0,79,30.29,10.0,Calm,Calm,-,N/A,,Partly Cloudy,0,2013-03-10 01:56:00
9:56 PM,33.1,28.0,82,30.29,9.0,Calm,Calm,-,N/A,,Partly Cloudy,0,2013-03-10 02:56:00
10:56 PM,30.0,26.1,85,30.32,8.0,NNE,3.5,-,N/A,,Partly Cloudy,30,2013-03-10 03:56:00
11:56 PM,28.9,25.0,85,30.32,9.0,Calm,Calm,-,N/A,,Partly Cloudy,0,2013-03-10 04:56:00